Hyderabad, India

3:19 PM IST on November 25, 2017 (GMT +0530)
Hyderabad

Weather History for VOHY - October, 2012

Change the Weather History Date:

Sunday, October 21, 2012

  Actual Average Record
Temperature  
Mean Temperature 78 °F -  
Max Temperature 85 °F 82 °F 93 °F (2015)
Min Temperature 71 °F 66 °F 61 °F (2016)
Cooling Degree Days 13    
Growing Degree Days 28 (Base 50)    
Moisture  
Dew Point 67 °F    
Average Humidity 66    
Maximum Humidity 94    
Minimum Humidity 45    
Precipitation  
Precipitation 0.00 in 0.06 in - ()
Sea Level Pressure  
Sea Level Pressure 29.97 in    
Wind  
Wind Speed 4 mph ()    
Max Wind Speed 9 mph    
Max Gust Speed -    
Visibility 3.1 miles    
Events Rain    
Averages and records for this station are not official NWS values.
T = Trace of Precipitation, MM = Missing Value Source: Averaged Metar Reports

Daily Weather History Graph

Daily Weather History Graph

Search for Another Location

Airport or City:

Trip Planner

Search our weather history database for the weather conditions in past years. The results will help you decide how hot, cold, wet, or windy it might be!

Date:

Astronomy

Oct. 21, 2012 Rise Set
Actual Time 6:10 AM IST 5:50 PM IST
Civil Twilight 5:48 AM IST 6:12 PM IST
Nautical Twilight 5:23 AM IST 6:37 PM IST
Astronomical Twilight 4:58 AM IST 7:03 PM IST
Moon 11:51 AM IST (10/21) 11:29 PM IST (10/21)
Length of Visible Light 12h 23m
Length of Day
11h 39m
Waxing Crescent, 40% of the Moon is Illuminated
Oct 21
Waxing Crescent
Oct 22
First Quarter
Oct 30
Full
Nov 7
Last Quarter
Nov 14
New

Hourly Weather History & Observations

Time (IST) Temp. Heat Index Dew Point Humidity Pressure Visibility Wind Dir Wind Speed Gust Speed Precip Events Conditions
2:30 AM 73 °F - 71 °F 89% 29.89 in 2 mi East 4.6 mph - -   Haze
5:30 AM 72 °F - 71 °F 94% 29.91 in 2 mi East 4.6 mph - -   Haze
8:30 AM 76 °F - 69 °F 74% 29.97 in 2 mi East 3.5 mph - -   Haze
9:10 AM 75.2 °F - 66.2 °F 73% 30.06 in 1.9 mi East 4.6 mph - N/A   Haze
10:10 AM 77.0 °F - 66.2 °F 69% 30.09 in 1.9 mi SE 5.8 mph - N/A   Haze
11:10 AM 78.8 °F - 66.2 °F 65% 30.09 in 1.9 mi Calm Calm - N/A   Haze
11:30 AM 80 °F - 69 °F 62% 29.95 in 2 mi SE 9.2 mph - -   Haze
1:10 PM 82.4 °F 84.6 °F 66.2 °F 58% 30.01 in 3.1 mi Calm Calm - N/A   Haze
2:30 PM 85 °F - 67 °F 45% 29.84 in 6 mi NE 6.9 mph - -   Partly Cloudy
2:40 PM 84.2 °F 86.6 °F 66.2 °F 55% 29.98 in 3.7 mi NE 9.2 mph - N/A   Haze
3:10 PM 84.2 °F 85.6 °F 64.4 °F 51% 29.98 in 3.7 mi East 6.9 mph - N/A   Mostly Cloudy
4:10 PM 84.2 °F 85.6 °F 64.4 °F 51% 29.95 in 3.7 mi East 4.6 mph - N/A   Mostly Cloudy
5:10 PM 82.4 °F 83.4 °F 62.6 °F 51% 29.98 in 3.7 mi ENE 3.5 mph - N/A   Mostly Cloudy
5:30 PM 82 °F - 67 °F 50% 29.82 in 6 mi East 3.5 mph - -   Scattered Clouds
6:10 PM 80.6 °F 82.3 °F 64.4 °F 58% 29.98 in 3.7 mi Calm Calm - N/A   Scattered Clouds
7:10 PM 78.8 °F - 66.2 °F 65% 30.01 in 3.7 mi North 6.9 mph - N/A   Scattered Clouds
8:10 PM 77.0 °F - 66.2 °F 69% 30.04 in 3.7 mi North 3.5 mph - N/A   Scattered Clouds
8:30 PM 76 °F - 71 °F 78% 29.92 in 2 mi East 6.9 mph - - Rain Light Rain
9:10 PM 75.2 °F - 66.2 °F 73% 30.04 in 3.7 mi Calm Calm - N/A   Scattered Clouds
11:30 PM 73 °F - 72 °F 94% 29.95 in 2 mi Calm Calm - - Rain Light Rain